Lewistown Municipal Airport Lewistown US
ICAO: KLWT
IATA: LWT
Category: Medium
Scheduled Services: Yes

Elevation: 4170 ft
TransAlt. 18000 ft.

Airport Communications:
ASOS:118.375
GREAT FALLS RDO:122.35
CTAF/UNICOM:123

KLWT Zoom In..

If you have problems with the map follow the link
https://www.worldairports.se/pages/airport.php?
ICAO=KLWT

Runways:

(A) RW 03 length 5600 ft width 101 ft
---- / hdg 23

(B) RW 08 length 6100 ft width 100 ft
---- / hdg 75

(C) RW 13 length 4102 ft width 62 ft
---- / hdg 125

(D) RW 21 length 5600 ft width 101 ft
---- / hdg 203

(E) RW 26 length 6100 ft width 100 ft
---- / hdg 255

(F) RW 31 length 4102 ft width 62 ft
---- / hdg 305

Location; KLWT
Day. 16 / Time. 02.54 Zulu
* Altimeter: 29.94
* Temperature: 01° c. 33.8°f.
* Wind from: 110° Speed 04 kn.
Dewpoint: -03° c.
Visibility: 10 Statute Miles.
Clouds: Broken 7500 ft.
Clouds: Overcast 9500 ft.

KLWT 160254Z AUTO 11004KT 10SM BKN075 OVC095 01/M03 A2994 RMK AO2 SLP164 T00061028 58028


Wind From 110°
Speed 04 kn.

 
 
jpsmedia.com for Web Design worldairports.se 2018   terms of use